| time (UTC) | temp F | wind direction | speed MPH | gust MPH | rain 1hr in | rain 24hr in | rain mn in | humidity % | barometer mb |
| 20260504201517 | 60 | 286 | 1.0 | 2.0 | 0.00 | 0.00 | 0.00 | 68 | 1011.3 |
| 20260504200516 | 61 | 286 | 1.0 | 2.0 | 0.00 | 0.00 | 0.00 | 67 | 1011.3 |
| 20260504195517 | 62 | 308 | 1.0 | 3.0 | 0.00 | 0.00 | 0.00 | 65 | 1011.1 |
| 20260504194516 | 62 | 0.0 | 0.0 | 0.00 | 0.00 | 0.00 | 63 | 1011.0 | |
| 20260504193518 | 63 | 316 | 0.0 | 1.0 | 0.00 | 0.00 | 0.00 | 62 | 1011.0 |
| 20260504192515 | 64 | 316 | 0.0 | 1.0 | 0.00 | 0.00 | 0.00 | 61 | 1011.1 |
| 20260504191515 | 65 | 0.0 | 0.0 | 0.00 | 0.00 | 0.00 | 59 | 1011.0 | |
| 20260504190516 | 66 | 316 | 0.0 | 1.0 | 0.00 | 0.00 | 0.00 | 57 | 1010.9 |
| 20260504185536 | 67 | 316 | 0.0 | 1.0 | 0.00 | 0.00 | 0.00 | 55 | 1010.9 |
| 20260504184518 | 67 | 316 | 1.0 | 2.0 | 0.00 | 0.00 | 0.00 | 54 | 1010.9 |
| 20260504183516 | 68 | 328 | 1.0 | 3.0 | 0.00 | 0.00 | 0.00 | 54 | 1010.8 |
| 20260504182515 | 68 | 5 | 1.0 | 2.0 | 0.00 | 0.00 | 0.00 | 54 | 1010.7 |
| 20260504181538 | 68 | 5 | 1.0 | 2.0 | 0.00 | 0.00 | 0.00 | 53 | 1010.8 |
| 20260504180517 | 69 | 5 | 1.0 | 2.0 | 0.00 | 0.00 | 0.00 | 52 | 1010.7 |
| 20260504175516 | 70 | 5 | 1.0 | 3.0 | 0.00 | 0.00 | 0.00 | 50 | 1010.7 |
| 20260504174516 | 70 | 5 | 2.0 | 3.0 | 0.00 | 0.00 | 0.00 | 48 | 1010.6 |
| 20260504173516 | 71 | 356 | 2.0 | 4.0 | 0.00 | 0.00 | 0.00 | 48 | 1010.6 |
| 20260504172516 | 71 | 15 | 2.0 | 5.0 | 0.00 | 0.00 | 0.00 | 47 | 1010.6 |
| 20260504171536 | 71 | 13 | 3.0 | 7.0 | 0.00 | 0.00 | 0.00 | 47 | 1010.6 |
| 20260504170515 | 72 | 350 | 2.0 | 7.0 | 0.00 | 0.00 | 0.00 | 45 | 1010.6 |
| 20260504150516 | 74 | 356 | 3.0 | 7.0 | 0.00 | 0.00 | 0.00 | 43 | 1010.9 |
| 20260504140518 | 75 | 358 | 7.0 | 12.0 | 0.00 | 0.00 | 0.00 | 41 | 1011.0 |
| 20260504130516 | 76 | 101 | 3.0 | 7.0 | 0.00 | 0.00 | 0.00 | 38 | 1011.4 |
| 20260504110516 | 74 | 96 | 4.0 | 8.0 | 0.00 | 0.00 | 0.00 | 42 | 1013.0 |
| 20260504100536 | 70 | 96 | 3.0 | 8.0 | 0.00 | 0.00 | 0.00 | 46 | 1014.0 |
| 20260504081517 | 67 | 349 | 4.0 | 9.0 | 0.00 | 0.00 | 0.00 | 48 | 1015.0 |
| 20260504080516 | 67 | 43 | 3.0 | 7.0 | 0.00 | 0.00 | 0.00 | 49 | 1015.1 |
| 20260504050517 | 55 | 200 | 1.0 | 4.0 | 0.00 | 0.00 | 0.00 | 70 | 1015.3 |
| 20260504045516 | 55 | 186 | 0.0 | 2.0 | 0.00 | 0.00 | 0.00 | 70 | 1015.3 |
| 20260504044515 | 55 | 191 | 2.0 | 4.0 | 0.00 | 0.00 | 0.00 | 71 | 1015.3 |
| 20260504043519 | 54 | 196 | 2.0 | 4.0 | 0.00 | 0.00 | 0.00 | 71 | 1015.3 |
| 20260504042516 | 54 | 205 | 3.0 | 4.0 | 0.00 | 0.00 | 0.00 | 72 | 1015.3 |
| 20260504041556 | 54 | 209 | 1.0 | 2.0 | 0.00 | 0.00 | 0.00 | 72 | 1015.3 |
| 20260504040515 | 54 | 209 | 1.0 | 2.0 | 0.00 | 0.00 | 0.00 | 71 | 1015.3 |
| 20260504035518 | 54 | 209 | 0.0 | 2.0 | 0.00 | 0.00 | 0.00 | 70 | 1015.4 |
| 20260504034515 | 55 | 209 | 1.0 | 2.0 | 0.00 | 0.00 | 0.00 | 68 | 1015.4 |
| 20260504033515 | 56 | 201 | 3.0 | 5.0 | 0.00 | 0.00 | 0.00 | 68 | 1015.5 |
| 20260504032535 | 56 | 207 | 3.0 | 6.0 | 0.00 | 0.00 | 0.00 | 68 | 1015.4 |
| 20260504031516 | 56 | 209 | 2.0 | 3.0 | 0.00 | 0.00 | 0.00 | 67 | 1015.4 |
| 20260504030519 | 57 | 0.0 | 0.0 | 0.00 | 0.00 | 0.00 | 66 | 1015.3 | |
| 20260504025516 | 57 | 208 | 1.0 | 2.0 | 0.00 | 0.00 | 0.00 | 64 | 1015.4 |
| 20260504024517 | 57 | 221 | 2.0 | 4.0 | 0.00 | 0.00 | 0.00 | 64 | 1015.5 |
| 20260504023516 | 57 | 232 | 2.0 | 3.0 | 0.00 | 0.00 | 0.00 | 64 | 1015.6 |
| 20260504022517 | 57 | 208 | 2.0 | 4.0 | 0.00 | 0.00 | 0.00 | 63 | 1015.6 |
| 20260504021516 | 58 | 207 | 2.0 | 5.0 | 0.00 | 0.00 | 0.00 | 62 | 1015.6 |
| 20260504020517 | 58 | 215 | 2.0 | 4.0 | 0.00 | 0.00 | 0.00 | 60 | 1015.6 |
| 20260504015516 | 58 | 228 | 3.0 | 7.0 | 0.00 | 0.00 | 0.00 | 59 | 1015.6 |
| 20260504014515 | 59 | 233 | 2.0 | 5.0 | 0.00 | 0.00 | 0.00 | 58 | 1015.7 |
| 20260504013537 | 59 | 259 | 3.0 | 7.0 | 0.00 | 0.00 | 0.00 | 57 | 1015.6 |
| 20260504012516 | 59 | 233 | 3.0 | 7.0 | 0.00 | 0.00 | 0.00 | 57 | 1015.6 |
| 20260504011517 | 59 | 270 | 4.0 | 10.0 | 0.00 | 0.00 | 0.00 | 56 | 1015.5 |
| 20260504010516 | 59 | 262 | 3.0 | 7.0 | 0.00 | 0.00 | 0.00 | 57 | 1015.4 |
| 20260504005518 | 60 | 254 | 3.0 | 9.0 | 0.00 | 0.00 | 0.00 | 57 | 1015.4 |
| 20260504004516 | 60 | 259 | 5.0 | 13.0 | 0.00 | 0.00 | 0.00 | 59 | 1015.4 |
| 20260504003515 | 60 | 245 | 2.0 | 8.0 | 0.00 | 0.00 | 0.00 | 60 | 1015.4 |
| 20260504002517 | 59 | 236 | 4.0 | 11.0 | 0.00 | 0.00 | 0.00 | 64 | 1015.2 |
| 20260504001515 | 60 | 222 | 4.0 | 7.0 | 0.00 | 0.00 | 0.00 | 64 | 1015.1 |
| 20260504000536 | 60 | 223 | 5.0 | 9.0 | 0.00 | 0.00 | 0.00 | 63 | 1015.0 |
| 20260503235516 | 60 | 213 | 6.0 | 10.0 | 0.00 | 0.00 | 0.00 | 63 | 1014.8 |
| 20260503234516 | 60 | 207 | 5.0 | 9.0 | 0.00 | 0.00 | 0.00 | 62 | 1014.6 |
| 20260503233516 | 60 | 211 | 5.0 | 9.0 | 0.00 | 0.00 | 0.00 | 62 | 1014.6 |
| 20260503232515 | 59 | 211 | 4.0 | 7.0 | 0.00 | 0.00 | 0.00 | 63 | 1014.5 |
| 20260503231517 | 58 | 225 | 4.0 | 7.0 | 0.00 | 0.00 | 0.00 | 64 | 1014.5 |
| 20260503230516 | 58 | 239 | 3.0 | 8.0 | 0.00 | 0.00 | 0.00 | 66 | 1014.3 |
| 20260503225515 | 59 | 213 | 2.0 | 4.0 | 0.00 | 0.00 | 0.00 | 63 | 1014.1 |
| 20260503224536 | 59 | 188 | 1.0 | 4.0 | 0.00 | 0.00 | 0.00 | 63 | 1013.9 |
| 20260503223518 | 59 | 187 | 1.0 | 2.0 | 0.00 | 0.00 | 0.00 | 62 | 1013.8 |
| 20260503222516 | 59 | 191 | 2.0 | 4.0 | 0.00 | 0.00 | 0.00 | 63 | 1013.9 |
| 20260503221515 | 59 | 209 | 2.0 | 5.0 | 0.00 | 0.00 | 0.00 | 62 | 1013.8 |
| 20260503220517 | 59 | 229 | 1.0 | 3.0 | 0.00 | 0.00 | 0.00 | 62 | 1013.8 |
| 20260503215535 | 59 | 214 | 2.0 | 4.0 | 0.00 | 0.00 | 0.00 | 61 | 1013.7 |
| 20260503214517 | 59 | 227 | 1.0 | 3.0 | 0.00 | 0.00 | 0.00 | 61 | 1013.6 |
| 20260503213515 | 60 | 226 | 1.0 | 3.0 | 0.00 | 0.00 | 0.00 | 61 | 1013.6 |
| 20260503212518 | 60 | 231 | 2.0 | 4.0 | 0.00 | 0.00 | 0.00 | 60 | 1013.5 |
| 20260503211517 | 61 | 213 | 2.0 | 3.0 | 0.00 | 0.00 | 0.00 | 60 | 1013.3 |
| 20260503210515 | 61 | 209 | 1.0 | 2.0 | 0.00 | 0.00 | 0.00 | 59 | 1013.2 |
| 20260503205517 | 61 | 209 | 1.0 | 2.0 | 0.00 | 0.00 | 0.00 | 58 | 1013.1 |
| 20260503204515 | 61 | 209 | 1.0 | 2.0 | 0.00 | 0.00 | 0.00 | 59 | 1013.0 |
| 20260503203515 | 61 | 222 | 1.0 | 3.0 | 0.00 | 0.00 | 0.00 | 59 | 1013.0 |
| 20260503202516 | 62 | 229 | 1.0 | 3.0 | 0.00 | 0.00 | 0.00 | 58 | 1012.8 |